Wind_Speed
15 15 15 15 14 14 13 13 13 12 11 11 11 10 10 10 9 9 9 8 8 8 7 6 6 5 5 5 6 7 7 7 7 7 7 7 8 8 8 9 9 9 9 9 10 10 9 10 10 10 11 11 11 11 11 11 10 10 11 11 11 12 12 13 12 12 12 14 15 15 16 16 16 16 17 17 17 18 18 18 17 18 18 18 18
15 16 16 16 15 14 14 14 13 13 13 13 12 12 11 10 10 9 9 9 9 9 8 8 7 6 6 6 6 6 7 6 6 6 6 7 7 7 8 8 8 8 8 9 10 10 10 10 10 11 11 11 12 12 13 13 12 11 10 10 10 11 12 14 14 14 14 14 15 15 16 16 16 16 17 18 18 18 17 16 16 16 16 16 16
16 16 17 17 17 15 14 14 14 13 13 13 13 13 12 12 11 11 10 10 10 9 9 10 9 8 8 7 7 6 6 6 5 5 6 6 6 6 6 7 7 7 7 7 8 9 9 9 10 10 10 10 11 12 12 13 13 12 11 11 12 12 14 15 16 16 15 14 14 15 15 16 16 17 17 17 17 17 16 16 16 16 15 14 14
16 16 16 17 17 17 15 15 14 14 14 14 13 13 13 13 12 12 12 11 10 10 10 10 10 9 9 8 8 7 7 6 6 5 6 6 6 6 6 6 6 6 6 6 6 6 7 7 8 8 8 9 9 10 11 12 12 12 12 13 13 13 14 14 14 15 15 14 14 15 15 15 15 16 16 16 16 15 16 16 16 16 14 14 15
17 17 17 17 17 17 16 16 15 14 14 14 14 13 13 13 12 12 12 12 11 10 11 11 10 10 10 9 9 9 8 8 7 7 7 7 7 7 7 7 7 7 6 5 5 5 5 6 6 7 7 8 8 8 9 9 10 11 11 12 13 13 13 13 14 14 15 15 14 14 14 14 13 13 14 15 15 14 15 16 16 16 15 15 16
19 18 19 18 17 17 16 16 15 15 14 14 14 14 14 13 12 12 12 11 11 11 12 11 10 10 10 10 10 10 10 9 9 8 8 8 8 7 7 7 7 7 6 6 5 5 5 5 6 6 7 7 7 7 8 8 8 9 10 11 11 12 12 13 13 14 14 14 13 13 13 13 13 13 14 15 16 15 15 16 16 16 16 16 16
20 19 20 19 18 18 17 16 16 15 15 14 14 14 14 13 12 12 12 12 11 11 12 12 11 10 10 11 11 10 10 10 10 10 9 9 9 8 9 8 7 7 7 7 6 5 5 6 6 7 8 8 7 7 8 7 7 8 10 10 10 11 11 11 11 12 12 12 13 13 13 14 15 15 15 16 16 16 16 17 17 16 17 18 18
21 20 20 20 19 19 18 18 17 16 15 15 14 15 14 14 13 13 13 12 11 11 11 12 12 11 11 12 12 11 11 11 11 11 11 10 10 10 10 9 8 8 8 8 9 7 5 6 8 9 9 8 8 8 8 8 7 8 10 10 10 11 11 11 11 12 13 14 14 14 15 15 15 16 16 16 16 17 19 20 19 18 19 20 19
23 22 22 22 20 19 19 19 19 19 18 16 15 14 14 14 15 15 15 14 13 12 12 12 12 11 12 12 12 12 12 12 11 12 12 11 11 11 11 10 9 10 9 9 10 9 7 7 9 10 10 10 9 9 10 9 9 10 11 11 11 11 12 13 13 14 15 16 16 16 17 17 17 18 18 19 19 20 20 19 19 20 21 20 19
25 24 24 24 22 21 21 20 20 20 20 19 17 15 16 16 16 16 15 15 14 14 13 13 12 12 11 11 12 13 13 12 12 13 12 12 11 11 11 10 10 10 10 10 10 10 9 9 9 10 12 12 11 11 11 12 11 11 11 11 11 12 13 14 15 16 17 18 18 19 19 19 19 20 21 21 21 22 21 20 21 21 22 22 20
28 27 27 27 26 25 24 23 21 20 21 20 19 18 18 19 19 18 16 15 15 15 14 14 13 13 12 13 13 14 13 12 13 14 13 12 11 11 11 10 10 9 9 10 10 10 10 10 10 12 13 12 12 12 12 11 11 11 11 11 12 13 14 15 16 17 18 19 20 20 20 20 20 20 21 21 21 21 21 21 23 23 23 24 24
31 30 29 28 28 28 27 26 25 25 24 22 21 21 21 23 23 22 21 19 17 16 16 15 14 14 14 15 16 15 14 14 15 15 14 12 11 11 12 11 11 10 10 10 11 11 12 11 12 14 14 12 11 12 11 10 11 12 12 13 14 14 15 16 17 17 19 20 21 21 21 21 21 20 21 21 20 21 21 22 24 25 26 27 28
34 33 32 32 31 30 29 27 26 24 22 21 22 22 22 24 24 23 23 22 19 19 18 17 16 16 16 18 20 18 17 16 16 16 15 14 13 13 13 13 13 12 12 12 14 14 14 14 15 16 16 15 14 14 13 12 13 13 14 14 15 15 16 17 19 19 19 20 21 20 21 22 22 21 21 21 21 22 23 24 25 27 27 28 28
37 35 34 33 33 32 31 30 28 25 22 21 22 24 23 23 24 24 25 25 25 25 22 19 19 18 18 21 23 22 20 20 19 17 15 15 15 14 15 15 15 14 14 16 17 17 16 16 15 16 17 18 18 18 17 15 15 15 15 16 16 17 17 19 20 20 19 20 21 21 21 22 23 23 23 24 25 26 26 26 27 28 29 29 29
39 36 35 33 32 31 31 30 29 27 24 24 25 26 26 25 25 26 27 28 30 28 23 21 21 22 23 25 25 24 23 22 21 20 19 18 17 16 17 17 16 17 19 20 20 19 18 18 17 17 18 19 20 20 20 18 18 18 17 17 17 17 18 19 20 20 20 20 21 22 23 23 24 25 25 26 27 28 28 30 31 32 32 32 32
40 39 39 36 34 32 32 32 31 29 27 27 28 28 28 28 28 28 29 30 32 28 23 22 24 25 26 26 25 24 24 23 22 22 21 20 20 19 20 20 19 20 22 23 22 21 20 21 20 19 19 20 21 21 22 22 21 20 20 19 19 18 18 19 20 21 21 22 23 24 25 26 26 26 27 27 28 29 30 32 33 33 33 33 33
37 38 37 35 33 32 32 34 34 31 30 31 30 30 30 30 30 30 31 33 33 29 25 25 27 28 28 28 26 25 24 23 23 22 22 21 21 21 21 21 22 23 24 24 23 23 23 23 23 22 21 21 22 22 22 23 23 22 22 21 21 20 20 20 19 20 22 23 25 26 27 28 28 28 28 29 29 30 31 32 32 31 32 32 32
31 33 32 30 30 29 29 31 33 33 33 32 29 28 29 30 30 30 32 35 34 32 29 28 30 31 31 29 28 27 26 24 23 22 22 23 22 22 22 22 23 24 24 24 24 24 24 25 25 24 23 22 23 23 23 24 25 25 24 23 22 21 21 21 21 22 23 24 25 26 27 28 28 28 28 29 29 30 31 31 31 30 31 31 31
27 28 27 26 26 26 27 27 29 31 32 30 26 25 27 29 30 30 32 33 33 32 31 30 32 33 32 31 29 28 27 26 25 24 24 24 24 24 24 23 24 24 24 24 24 24 24 24 24 24 24 24 24 24 25 26 26 26 24 23 23 23 23 23 23 24 24 24 25 26 26 27 28 29 30 30 30 30 30 31 31 31 31 31 31
25 26 25 24 24 25 25 25 25 26 27 27 26 26 26 28 28 28 29 29 29 28 28 28 30 32 33 34 33 31 29 28 27 27 26 26 25 24 24 24 24 25 24 24 24 24 24 23 23 23 24 24 25 25 26 26 26 26 25 25 24 24 24 24 25 25 25 25 25 26 27 27 28 30 32 31 29 29 29 29 30 30 29 28 28
26 26 26 26 26 26 26 25 24 25 24 24 25 26 25 25 25 25 25 26 26 25 24 25 26 27 29 31 32 32 31 28 28 29 28 26 25 23 23 23 23 23 23 25 25 25 24 23 23 23 23 24 25 26 24 23 23 23 24 24 24 24 25 25 25 26 26 26 27 28 29 30 30 31 31 30 28 27 26 25 25 25 25 24 24
26 26 26 27 27 28 29 28 26 26 25 24 24 25 25 24 23 23 22 22 22 21 21 22 22 21 22 24 25 27 28 28 28 30 29 27 25 24 23 23 23 21 22 23 25 23 21 20 19 19 19 21 22 23 22 21 21 21 22 23 24 24 24 25 25 26 27 27 28 28 29 29 28 27 26 25 25 24 22 22 22 23 23 23 23
24 24 24 25 25 25 27 27 27 27 27 26 24 23 23 23 22 21 21 20 19 19 19 21 21 19 18 19 19 21 26 29 28 29 29 29 28 28 27 25 24 22 20 21 21 21 19 18 17 16 15 16 16 17 18 19 20 20 21 22 22 22 21 22 23 24 24 24 25 25 25 25 24 24 23 23 23 23 23 23 23 24 25 25 25
21 21 21 21 23 23 22 23 25 25 26 26 24 22 21 21 20 21 20 19 19 19 19 19 20 19 19 18 16 17 22 24 23 24 27 29 29 29 28 26 25 24 21 18 17 18 18 17 15 14 13 12 12 12 13 14 15 17 19 20 20 20 20 21 21 22 22 22 23 23 24 24 25 25 25 25 25 25 25 25 26 26 27 27 27
21 21 19 19 20 21 20 20 22 23 24 24 23 22 21 21 21 22 22 21 20 19 17 15 15 16 18 18 16 15 16 17 18 20 23 24 23 23 23 24 24 24 22 19 18 17 15 13 12 12 11 12 12 13 13 15 16 18 20 21 22 22 22 23 23 23 24 24 25 25 26 27 27 28 28 28 28 28 27 27 28 28 28 28 28
21 22 21 20 19 19 19 19 20 22 25 26 25 24 23 22 22 23 23 22 20 18 16 14 12 13 15 16 16 14 13 14 17 18 18 18 18 18 19 21 23 22 21 19 18 15 12 11 11 12 13 14 15 16 16 17 19 20 22 23 25 24 24 24 25 25 25 25 26 26 26 27 27 28 28 28 28 28 28 28 28 28 28 28 27
20 20 20 19 19 18 19 19 20 22 24 25 24 23 21 20 21 23 22 21 19 18 16 15 15 15 15 16 16 14 12 12 14 15 15 15 15 16 17 19 21 20 19 18 15 13 12 12 13 14 15 16 17 18 19 19 20 21 22 23 24 24 23 23 24 25 25 24 24 24 24 24 24 24 25 25 25 25 25 26 26 26 26 26 25
19 18 18 19 20 19 19 20 21 21 22 23 22 21 18 18 19 20 20 19 19 18 17 16 17 16 16 17 17 16 14 15 17 18 18 18 18 18 19 19 19 18 17 16 14 14 14 14 15 16 17 18 18 19 20 19 20 20 20 21 22 22 21 20 21 21 22 22 21 21 21 21 21 21 21 21 22 22 22 23 23 23 23 24 24
18 18 18 19 19 17 17 19 20 19 19 20 21 20 19 20 20 20 20 20 20 18 16 17 16 15 15 15 15 14 15 16 16 16 16 16 17 17 18 17 17 16 15 15 14 15 15 16 17 17 18 19 19 19 20 19 19 19 18 18 19 19 18 18 18 18 19 19 19 20 20 20 20 20 20 21 21 21 22 22 22 23 23 23 24
17 18 18 17 16 17 19 20 19 17 17 17 17 17 18 19 20 19 18 18 17 15 14 15 14 14 13 13 13 13 13 14 14 14 13 14 14 15 15 15 15 15 15 15 16 17 17 18 18 18 19 19 19 19 19 18 17 17 17 17 18 17 17 17 18 18 19 20 20 20 21 21 21 22 22 22 23 23 23 24 24 24 24 24 25
17 17 17 16 16 19 21 19 16 14 14 15 15 15 15 16 16 16 15 15 14 14 14 15 15 15 14 13 13 13 14 14 15 15 15 15 15 15 15 15 15 16 16 17 18 18 19 19 19 19 19 19 18 18 18 17 16 17 17 17 18 18 18 19 20 20 21 22 22 22 23 23 23 23 24 24 24 25 25 26 26 26 26 26 27
18 18 17 16 17 18 18 15 13 13 14 15 15 15 15 15 16 16 15 15 15 15 16 16 16 16 16 15 15 15 15 15 16 16 16 16 16 16 17 17 17 18 18 19 19 19 20 20 19 19 19 18 17 18 18 17 17 18 18 19 20 20 20 21 21 21 22 23 24 24 24 24 25 25 26 26 27 27 27 28 28 28 28 28 29
18 18 16 16 17 17 17 15 14 14 14 15 15 15 15 16 16 15 15 15 15 15 16 16 17 17 16 17 17 16 16 16 17 17 17 17 18 18 18 18 18 19 19 19 19 19 20 20 19 18 19 18 18 18 18 18 19 19 19 20 20 21 21 22 22 23 24 25 25 25 26 26 27 27 27 28 29 29 29 30 30 30 30 30 30
16 15 14 15 17 17 17 17 16 15 16 16 16 16 16 17 17 16 17 17 17 17 17 17 17 17 17 17 17 17 17 17 17 18 18 18 18 18 19 19 19 19 19 19 19 19 19 19 18 18 18 19 19 20 20 21 21 21 22 22 22 22 23 23 23 23 25 25 26 27 27 27 28 28 29 29 30 30 30 31 31 32 32 32 32
12 12 13 15 17 17 18 18 17 17 17 17 17 18 19 18 18 18 19 19 19 19 19 19 19 19 19 19 18 18 18 18 19 19 19 19 19 19 19 19 18 18 19 18 18 18 18 17 18 18 19 19 20 21 21 22 22 23 23 23 24 25 26 26 26 26 27 28 29 29 29 29 29 29 30 31 31 31 32 32 32 33 33 33 34
15 14 14 15 16 17 19 19 19 19 18 17 18 19 19 19 19 19 20 21 21 20 20 20 20 20 20 20 20 19 19 20 19 19 19 19 18 19 19 18 17 18 18 17 17 18 18 18 18 19 20 20 21 21 22 23 23 23 23 24 25 26 27 27 28 29 29 30 31 32 32 32 32 32 32 32 33 33 34 34 35 35 36 36 36
18 17 16 16 18 19 20 19 19 19 18 17 18 19 19 18 19 20 20 21 21 21 20 20 20 20 20 20 20 19 19 19 18 18 18 18 18 18 18 17 17 18 17 16 17 19 20 20 20 20 21 22 22 23 23 23 24 24 25 25 27 28 28 29 30 30 30 31 32 32 33 33 34 34 34 33 33 34 35 36 37 38 38 39 39
22 21 20 20 20 21 21 20 19 19 19 19 19 19 19 18 19 19 20 20 20 20 20 19 19 20 20 18 17 18 18 17 17 17 17 17 17 17 17 17 18 19 18 17 18 20 21 21 22 22 22 23 23 24 24 25 25 26 26 27 29 30 30 31 32 32 32 32 32 33 34 35 36 35 34 34 34 35 36 37 38 39 39 40 40
25 25 25 24 23 23 23 22 21 22 22 22 22 21 20 19 19 19 19 19 19 19 19 19 20 20 17 15 16 18 17 16 17 17 17 17 17 17 18 19 19 20 20 20 20 21 22 22 22 22 23 24 24 25 26 26 26 27 28 29 30 31 31 32 33 33 33 33 33 34 35 36 36 36 35 36 36 37 38 38 39 40 41 41 42
26 28 29 28 26 24 24 23 24 24 25 24 24 24 22 20 20 19 19 19 19 18 18 19 19 17 15 15 18 19 18 17 18 18 18 18 19 19 19 20 21 21 22 22 21 22 22 23 23 23 24 24 25 26 26 27 28 29 29 30 31 32 32 33 34 34 33 33 33 34 36 37 37 37 37 38 38 39 40 41 42 42 44 44 45
28 28 28 28 27 25 23 22 22 23 24 25 25 25 23 22 21 20 19 19 19 18 19 19 17 15 15 18 18 18 18 18 19 20 19 19 20 20 21 21 22 22 23 22 22 23 24 24 24 25 25 26 26 27 27 28 29 30 30 31 32 32 33 34 34 33 33 34 35 36 36 37 38 39 39 39 40 40 42 43 45 46 47 48 49
30 29 28 27 27 26 25 22 20 20 22 24 25 24 23 22 20 19 19 19 19 19 19 18 16 15 17 18 17 18 19 19 20 20 20 20 20 21 22 23 23 22 22 22 23 24 25 25 26 26 26 27 27 28 29 30 30 31 31 32 33 33 34 34 33 33 34 35 36 37 38 39 40 42 42 43 43 44 45 47 48 49 51 51 52
32 32 30 28 26 26 26 26 23 19 20 22 24 24 23 21 19 19 19 19 19 18 19 18 17 17 18 18 17 18 19 20 20 20 20 20 21 22 23 23 23 22 22 23 24 25 25 26 27 27 27 28 29 29 30 30 30 31 32 33 34 34 34 34 34 34 35 37 38 39 40 41 43 44 45 47 48 48 49 50 51 52 53 53 53
31 30 27 25 24 22 23 24 23 21 20 22 23 23 21 20 19 18 19 19 18 18 19 19 18 17 18 19 19 19 20 20 20 21 21 21 22 23 24 24 23 22 23 24 26 27 27 27 28 28 28 29 30 30 31 31 31 31 32 34 35 35 35 35 36 37 38 39 40 41 42 44 45 47 48 49 50 51 51 52 52 52 52 52 51
27 26 25 24 24 23 23 23 24 24 24 23 23 22 20 19 19 19 19 19 19 18 19 20 19 18 18 20 20 20 20 21 21 21 21 22 23 24 25 25 24 23 24 26 27 28 28 28 29 29 29 29 30 31 31 32 32 33 34 34 35 36 36 37 39 40 41 42 43 44 46 47 48 49 50 51 51 51 51 50 50 50 50 49 49
24 25 24 23 24 24 24 24 24 24 24 23 22 21 21 20 20 20 20 19 19 19 20 20 19 19 20 21 21 20 21 21 22 22 22 22 24 25 25 25 24 24 26 27 28 28 29 29 29 29 29 30 30 31 32 32 33 34 35 35 36 37 38 40 41 43 44 45 46 47 48 49 49 50 50 50 50 50 49 49 48 47 47 46 46
22 22 22 22 23 23 23 24 24 24 24 23 23 22 22 21 21 21 20 19 19 20 21 21 20 21 21 21 21 21 21 22 23 23 23 24 25 25 26 26 25 25 26 27 28 28 28 29 29 29 30 30 31 32 32 33 34 35 36 37 38 39 41 43 44 45 46 47 48 48 48 49 49 49 48 48 47 47 46 46 45 44 44 44 44
21 20 21 21 22 22 22 23 23 23 24 24 24 24 23 23 22 22 20 20 20 21 21 22 22 22 22 21 21 22 23 23 23 24 24 25 25 25 26 26 26 25 26 27 28 28 28 29 29 30 30 31 32 32 33 34 35 36 37 39 40 42 43 44 45 46 46 46 47 47 47 47 46 45 44 44 44 44 44 44 43 43 43 43 42
22 21 21 20 21 21 22 22 22 23 24 25 25 25 25 24 23 23 22 21 21 22 22 22 22 22 22 22 22 23 23 23 24 25 25 25 25 25 26 26 25 25 26 27 28 28 29 29 30 30 31 32 33 34 35 36 37 38 40 41 42 43 44 45 45 45 45 45 44 44 44 43 42 42 41 41 42 42 43 43 43 43 42 42 41
24 23 21 20 20 20 21 21 22 23 25 25 25 25 25 25 24 24 23 22 22 23 23 23 22 22 22 23 23 23 23 23 24 25 25 25 25 25 25 26 26 26 26 27 28 29 29 30 30 31 32 33 34 35 37 38 39 40 41 42 42 43 43 44 44 43 42 42 41 41 41 40 40 40 40 41 41 42 42 42 42 41 41 40 40
24 23 22 21 20 20 21 21 22 25 25 25 25 25 25 25 25 25 24 23 23 23 23 22 22 23 23 23 23 22 23 23 24 24 25 26 26 26 26 26 26 26 27 27 28 29 30 31 32 33 34 35 36 37 39 40 40 41 42 41 41 41 41 41 40 39 39 39 39 39 39 39 40 40 40 40 40 40 40 39 39 38 38 37 37
Wind_Direction
209 210 210 209 208 206 206 206 205 205 201 202 203 203 203 203 204 204 205 206 206 208 210 208 209 209 204 208 217 220 220 221 225 227 230 233 237 243 247 247 248 250 252 253 257 261 263 261 262 264 265 266 267 269 273 276 278 282 284 285 289 293 296 297 300 301 302 305 307 307 308 309 311 312 313 315 315 314 318 321 320 322 326 331 335
210 209 209 209 211 210 210 209 207 206 205 207 209 209 208 207 205 206 207 210 214 212 214 216 214 211 210 211 215 217 216 217 219 222 229 236 237 240 245 250 252 254 255 257 260 264 266 266 265 264 264 267 268 269 271 275 277 280 283 286 291 296 298 299 301 303 303 304 305 306 307 308 310 312 312 313 313 313 318 320 319 322 325 329 331
212 211 208 207 210 212 215 215 211 208 207 207 210 210 211 211 208 208 208 210 216 215 215 218 218 217 218 219 220 219 219 220 219 222 230 234 236 239 242 246 252 254 256 262 265 265 265 266 266 265 266 267 268 269 270 273 276 279 282 287 292 294 295 298 301 304 304 306 307 307 307 308 310 311 310 312 314 316 320 322 322 322 323 326 329
213 211 209 207 210 212 215 217 216 213 210 208 210 211 212 213 211 212 214 214 216 216 215 216 219 225 226 226 228 227 226 229 231 231 236 239 237 240 241 239 244 250 253 261 267 267 269 271 272 274 276 276 274 273 273 274 275 277 280 285 289 291 292 294 298 302 304 307 308 307 307 307 308 310 311 314 316 318 320 322 322 323 326 329 332
216 214 212 209 211 213 213 216 217 216 213 213 214 215 215 215 214 218 221 222 223 224 224 221 220 225 230 232 233 230 228 231 233 233 238 245 243 243 244 238 236 239 242 249 257 265 271 275 280 282 285 286 283 281 279 277 277 280 284 287 291 294 295 295 298 301 305 309 310 310 309 308 309 311 313 313 314 316 318 319 320 322 326 328 329
217 217 219 215 214 216 215 216 219 219 218 216 216 219 220 216 216 223 227 227 227 229 231 229 225 226 230 232 232 232 231 231 233 234 235 241 244 247 250 247 243 242 240 239 241 250 263 270 278 281 282 282 283 285 286 286 287 290 292 294 296 298 301 304 305 305 308 311 312 313 313 314 316 317 316 316 315 317 316 314 315 319 323 325 327
220 220 223 221 220 222 222 221 221 221 221 220 218 220 224 220 218 224 230 231 231 232 233 232 229 229 234 238 234 232 234 234 236 238 238 240 242 246 249 248 251 257 257 257 251 245 257 273 277 277 276 276 277 281 281 283 289 293 293 296 298 300 303 307 308 307 309 311 314 318 319 320 319 316 317 317 316 317 316 313 317 322 324 326 330
224 223 225 226 225 226 228 227 226 227 226 225 224 227 230 227 222 224 229 236 238 232 232 236 233 228 232 240 241 238 239 238 239 242 245 247 246 247 249 249 252 256 259 267 267 257 254 268 275 276 277 277 277 279 280 281 288 292 294 298 300 301 303 306 308 310 311 311 312 314 314 316 316 314 315 317 317 316 314 315 320 322 322 325 331
226 226 229 232 231 230 231 230 229 230 231 229 229 233 238 236 231 229 228 234 240 237 235 239 239 233 234 240 245 244 242 241 244 244 244 246 248 249 251 254 257 256 252 257 265 265 259 262 272 280 284 282 280 280 284 287 290 291 292 295 298 300 302 305 307 307 306 306 307 307 308 311 314 313 313 316 316 313 312 315 318 317 318 323 330
230 230 231 234 234 232 233 232 231 232 234 234 232 232 238 242 241 237 231 230 236 240 242 244 246 247 246 243 242 243 243 243 244 245 242 242 246 249 251 254 260 262 256 251 255 262 262 261 266 272 274 277 279 278 281 288 291 289 288 289 292 298 301 303 304 303 302 303 304 305 307 309 311 310 310 310 309 308 310 314 315 316 319 322 325
233 234 234 236 234 231 229 227 227 230 234 236 235 231 235 239 240 241 242 241 238 237 240 244 248 253 254 251 247 247 247 244 242 244 245 243 245 248 250 253 257 261 260 255 254 258 261 265 269 267 263 265 270 270 275 289 295 292 292 293 295 300 302 301 301 301 301 301 302 304 306 308 308 307 307 306 306 308 311 314 316 317 318 319 321
236 238 239 241 240 238 236 229 222 220 222 227 230 228 229 234 236 238 242 244 243 241 241 242 243 246 251 255 256 255 254 250 247 250 251 248 248 251 253 254 255 256 258 259 260 258 257 256 259 263 264 264 267 269 276 286 289 288 291 294 296 299 301 301 300 299 298 298 300 303 306 307 307 306 306 308 310 312 312 313 313 313 314 316 320
240 240 240 242 243 243 244 243 238 232 227 229 233 233 233 237 240 241 242 241 240 240 241 240 241 244 249 254 255 254 253 252 251 255 257 255 252 252 254 256 257 258 259 260 259 256 253 252 254 261 269 273 274 274 275 277 279 282 287 292 296 298 300 301 300 299 299 300 302 306 308 308 308 309 310 311 311 310 309 309 310 310 313 316 319
242 241 240 242 243 244 245 247 251 249 242 240 241 241 241 242 244 247 246 242 237 233 229 228 233 236 239 246 249 249 250 253 255 255 256 257 255 253 254 255 257 260 260 258 257 256 257 258 259 264 269 272 274 275 276 278 280 281 283 289 294 295 297 297 296 297 301 303 305 308 309 308 308 309 309 308 308 307 308 309 310 312 315 318 321
245 247 247 246 246 248 248 249 252 252 249 249 249 247 247 246 246 248 248 245 243 239 230 226 231 233 233 239 244 245 246 249 253 254 255 257 257 255 255 255 256 257 256 256 257 259 262 263 264 266 268 270 273 276 279 282 282 281 283 287 289 290 293 293 293 296 301 302 304 306 306 305 304 304 305 305 305 307 308 310 312 315 317 318 319
248 250 251 250 250 252 253 253 253 253 253 254 253 252 253 252 253 253 251 249 248 246 240 236 238 238 239 241 245 248 249 249 251 253 255 257 257 257 255 255 255 255 256 258 261 263 266 267 267 268 270 271 273 277 281 282 282 283 284 285 286 287 288 288 291 296 300 302 305 305 304 304 305 304 304 305 306 308 309 309 311 313 313 313 314
250 251 253 255 258 258 255 253 252 253 255 253 250 251 251 252 254 255 254 252 251 248 246 246 246 245 244 244 245 247 250 253 253 253 254 255 257 257 257 255 255 256 258 262 264 266 268 269 270 271 272 272 273 277 280 282 282 283 282 280 281 282 283 285 288 292 294 296 298 298 298 299 300 301 302 302 303 304 305 306 308 309 310 309 310
248 250 252 255 259 258 253 250 250 253 255 254 250 249 249 249 251 252 253 255 255 253 248 248 250 250 249 249 249 247 246 249 252 253 255 256 256 256 256 256 256 259 261 263 266 267 268 269 271 272 273 274 276 277 280 282 282 280 278 277 277 279 282 285 287 288 290 292 293 293 293 293 294 296 297 298 299 300 302 305 306 307 307 307 307
246 249 252 254 257 257 253 251 250 253 258 260 259 256 252 251 250 249 249 253 258 260 255 250 250 252 252 252 252 250 247 246 248 250 253 255 256 256 257 258 259 260 261 264 266 269 270 271 272 274 276 278 279 279 281 283 281 277 274 273 275 277 281 284 287 288 290 291 292 292 291 291 293 294 294 294 297 300 302 304 304 304 305 306 307
249 251 254 255 254 254 253 252 251 253 257 260 261 260 256 253 251 250 253 256 260 264 263 259 257 258 257 254 252 250 247 245 246 247 249 252 254 255 256 258 260 261 263 265 267 268 271 272 273 276 279 279 279 280 281 281 278 273 271 273 276 279 282 285 288 289 290 291 290 290 290 291 293 294 294 295 297 299 301 302 303 303 305 306 308
250 252 254 254 254 254 255 255 254 254 253 253 257 258 256 253 252 252 255 257 258 260 261 260 259 258 258 257 254 249 245 244 246 246 245 246 250 251 253 256 260 264 267 268 269 271 272 273 274 277 279 279 279 279 278 277 274 272 273 277 281 283 285 287 287 288 288 289 289 290 292 294 295 294 295 296 298 300 302 303 304 305 306 308 310
255 255 254 254 253 253 254 254 252 252 251 249 250 253 253 252 253 254 254 252 252 254 256 255 253 251 253 256 254 248 244 244 246 246 243 243 247 250 253 256 261 267 269 269 272 274 274 273 274 275 278 280 280 277 272 271 271 271 277 282 284 285 286 286 286 285 285 286 287 289 290 292 293 294 295 297 299 301 303 304 304 304 306 307 308
259 259 258 258 255 251 250 251 250 250 249 246 245 247 249 250 249 249 248 246 247 251 254 255 253 247 245 248 252 252 247 239 237 240 242 243 246 250 255 259 260 263 267 270 272 273 271 270 272 273 277 283 285 281 275 272 271 272 276 280 281 282 283 285 285 285 285 285 286 286 287 288 290 291 293 295 296 298 300 300 301 301 302 303 303
252 253 255 256 255 251 249 249 247 245 244 243 241 239 238 238 239 239 239 241 245 249 253 257 257 252 247 244 242 249 252 245 237 238 241 242 243 245 251 256 258 259 262 264 265 267 269 269 268 267 271 277 282 282 278 273 270 269 270 273 276 278 280 282 282 283 284 284 283 283 284 285 286 287 289 290 291 292 294 296 296 296 296 297 298
242 241 240 240 244 244 240 237 237 238 237 235 233 232 231 231 233 236 238 240 241 241 243 249 253 252 249 244 238 242 253 254 249 246 248 251 250 246 248 253 256 255 253 254 259 266 267 261 256 258 264 271 275 276 275 273 271 270 271 273 276 278 280 280 280 281 281 281 282 282 283 284 285 286 287 288 288 290 292 293 294 294 294 295 296
236 234 232 230 233 234 230 226 227 231 233 230 228 229 230 231 235 238 238 238 237 235 237 241 244 244 241 239 239 243 245 244 244 246 251 257 259 255 250 249 250 250 251 255 259 257 248 242 249 259 266 271 274 275 274 274 274 274 274 276 278 280 282 282 283 282 282 282 283 283 283 284 285 286 288 289 291 292 293 293 294 295 295 296 296
228 229 230 229 228 226 225 226 227 229 231 231 231 231 229 230 235 236 234 234 234 235 237 239 240 239 235 230 230 232 231 228 230 234 236 240 246 249 248 247 250 253 254 252 247 241 240 249 259 265 268 272 275 276 277 277 276 276 277 278 280 282 283 284 285 286 286 287 286 286 287 287 288 289 291 292 294 296 296 296 296 297 298 299 300
220 219 220 222 223 221 221 225 227 227 227 229 231 231 228 227 231 232 229 230 232 234 237 242 243 242 238 234 232 230 230 232 233 233 234 237 240 242 243 244 246 245 242 240 242 247 255 262 266 269 273 276 278 279 281 280 279 279 280 281 283 285 286 287 287 287 288 289 290 290 291 292 293 294 295 296 297 297 298 298 298 298 299 299 300
213 213 214 218 221 218 218 221 223 222 222 223 225 226 225 225 228 230 230 232 233 233 235 239 240 236 233 233 231 227 226 230 232 232 233 233 233 233 233 233 233 233 237 245 253 258 263 267 271 274 276 278 280 281 282 282 282 282 282 282 284 287 289 289 289 290 292 293 293 294 295 296 297 297 297 298 298 298 298 298 298 299 299 299 300
211 212 214 217 215 212 216 221 222 221 220 221 221 222 221 221 224 226 227 227 226 225 226 225 220 214 209 208 205 204 207 212 216 219 221 222 224 227 229 232 237 242 249 255 259 263 268 271 274 275 277 279 282 282 283 284 284 284 285 285 286 290 293 294 295 296 297 298 298 299 300 300 300 300 300 300 300 300 300 300 300 300 300 300 301
218 214 211 211 210 213 221 224 219 213 214 214 212 211 211 212 214 216 217 214 210 210 211 211 207 203 202 200 199 203 210 214 218 222 225 227 230 234 238 242 247 251 255 259 262 266 269 272 275 277 279 281 282 282 284 286 287 287 290 291 292 296 298 298 298 300 300 300 300 301 302 302 301 301 302 301 301 301 301 301 300 300 300 300 300
220 217 212 210 213 219 225 224 212 204 207 211 209 209 211 211 211 212 213 212 211 211 211 211 210 210 210 212 213 215 218 221 225 229 232 234 238 242 244 247 250 253 256 260 263 266 270 274 277 278 280 282 284 284 286 288 288 290 292 293 295 298 299 298 299 300 300 299 300 300 301 301 301 301 302 302 301 301 301 301 301 300 300 300 300
225 224 218 216 221 224 224 221 214 205 208 214 216 215 216 217 216 217 218 217 218 218 218 217 217 217 217 219 222 224 225 227 229 233 237 239 242 245 248 251 254 257 260 264 267 270 273 275 277 278 281 283 285 286 288 290 290 291 292 293 294 296 295 296 298 298 298 298 299 299 299 299 300 301 301 301 301 301 301 300 300 300 300 300 300
237 235 228 226 229 230 229 227 222 213 212 218 220 221 222 222 221 221 222 224 224 223 224 225 225 226 227 227 229 232 234 236 238 241 243 246 248 251 254 256 258 261 263 265 267 269 271 273 275 277 279 281 283 285 287 289 290 292 293 294 295 295 294 294 296 295 295 295 295 295 296 296 297 298 298 298 298 299 299 299 300 300 300 300 300
240 236 233 232 233 234 234 234 231 225 223 222 223 225 226 227 227 227 227 228 228 228 229 231 232 234 236 237 238 240 242 244 246 248 250 252 254 256 258 260 262 264 265 266 268 269 270 272 273 274 276 278 280 281 283 284 285 287 289 291 293 293 293 295 296 295 295 296 296 296 297 297 298 299 299 299 300 300 301 301 301 301 301 300 301
246 244 243 245 245 245 243 241 238 236 234 232 232 232 230 229 232 233 233 234 235 234 234 235 236 237 239 241 242 244 245 247 249 251 253 255 256 257 259 261 262 263 264 266 269 270 271 271 272 273 275 277 278 279 281 282 283 284 286 287 288 288 289 291 291 292 293 294 295 296 298 299 299 299 300 301 302 304 304 303 302 301 301 302 303
247 248 250 253 255 257 256 254 251 249 246 243 242 241 239 236 235 235 236 238 239 239 238 239 240 241 242 242 244 245 246 248 249 251 252 254 254 256 258 260 260 261 262 263 264 266 269 271 272 274 276 277 278 280 281 282 284 286 287 288 289 289 291 292 292 292 293 294 295 296 297 298 297 298 300 302 303 302 301 300 300 301 301 302 302
245 248 251 253 256 258 259 260 261 261 256 251 248 246 245 241 238 239 241 241 241 242 241 240 241 243 244 246 247 246 246 248 249 250 251 253 253 255 257 258 259 261 263 262 261 264 268 270 272 275 277 278 280 281 282 284 286 287 289 290 290 291 292 293 293 294 295 296 297 298 297 297 297 299 301 301 300 298 298 298 298 299 300 300 301
245 249 252 253 255 257 258 259 260 260 257 253 249 247 246 243 239 239 241 241 242 244 244 241 241 243 245 244 243 243 243 244 245 246 247 249 252 255 256 258 260 262 264 263 263 265 268 270 272 274 275 277 279 281 283 285 286 287 288 289 289 290 291 291 292 293 294 295 296 296 295 296 297 298 298 297 297 297 297 297 297 298 298 298 298
250 253 251 249 250 253 256 258 259 257 255 253 250 248 247 246 244 242 242 243 243 243 243 244 245 244 240 236 237 239 240 239 241 244 245 247 252 255 258 261 263 265 266 268 270 272 273 274 275 276 276 278 279 281 283 285 285 286 287 287 288 289 290 290 291 292 294 295 295 294 294 295 296 296 296 296 297 297 298 298 298 298 298 298 298
251 250 244 241 242 243 246 252 257 258 255 251 250 250 248 245 245 245 245 246 246 244 245 246 245 240 235 234 236 240 242 243 245 249 250 251 255 257 260 262 264 266 269 271 273 274 275 276 277 278 279 280 282 283 284 285 285 285 286 287 288 288 288 289 290 292 294 294 293 293 294 294 294 295 295 296 296 297 297 297 297 297 297 298 298
246 242 237 237 240 242 242 245 252 260 260 254 250 250 249 246 245 246 246 247 247 247 248 247 242 237 238 240 241 243 246 248 252 255 257 259 261 262 262 263 264 267 270 272 273 273 275 276 277 279 281 283 284 284 284 284 285 286 287 287 286 287 288 289 292 293 294 294 294 294 294 294 295 296 297 297 298 298 297 298 298 298 299 299 299
246 245 243 243 245 247 248 246 245 253 264 262 255 251 250 248 246 245 245 245 246 247 248 248 243 240 243 245 246 249 253 256 259 261 263 264 264 264 265 267 269 272 274 274 275 276 277 279 281 282 284 285 284 284 284 285 285 286 287 287 287 289 291 293 294 294 293 292 292 293 294 294 295 296 297 297 298 298 298 298 298 298 299 299 299
249 248 246 243 242 244 248 249 246 247 256 262 259 254 250 247 245 244 244 245 244 244 246 247 245 244 247 250 251 253 257 260 262 264 265 266 266 268 270 271 273 276 277 278 279 280 281 282 283 284 284 284 284 285 285 286 287 288 288 288 290 291 293 294 294 293 292 291 292 293 294 295 295 296 296 296 296 297 297 297 297 297 297 297 296
247 248 246 244 243 243 246 251 252 251 251 253 254 252 248 244 243 243 244 244 243 243 245 248 248 248 250 253 256 257 259 261 262 263 265 266 268 269 271 273 276 278 279 279 280 281 282 283 283 283 284 284 285 285 286 287 288 288 288 289 290 292 293 293 292 292 292 293 294 295 295 295 296 296 296 296 296 297 296 296 296 296 296 295 295
242 245 247 247 247 246 246 249 253 255 254 251 248 246 244 243 243 243 243 244 245 245 246 249 251 251 251 254 257 259 260 262 263 264 265 267 268 269 272 275 277 277 276 277 278 279 280 281 281 282 283 284 284 284 285 286 287 287 288 289 291 292 292 292 292 293 294 295 296 296 296 296 297 297 297 297 298 298 298 298 297 297 297 296 295
238 241 244 245 246 246 247 247 250 254 256 254 250 247 245 244 244 244 244 245 246 247 249 250 251 251 252 254 256 257 258 260 262 264 264 265 267 270 272 274 274 275 275 276 277 277 278 280 280 281 282 283 283 284 285 286 287 288 289 291 292 292 292 293 294 294 295 295 296 297 297 297 298 298 299 299 299 299 299 299 299 299 298 298 297
239 241 244 247 247 247 247 246 247 249 252 252 250 249 248 247 247 247 247 246 247 248 249 250 251 252 254 255 256 257 258 259 261 263 264 266 267 269 271 272 273 275 276 276 277 278 279 280 281 282 282 283 284 285 286 288 289 290 292 292 293 293 294 295 295 296 297 297 298 298 299 299 299 300 300 300 300 301 301 300 300 300 299 298 297
245 244 245 248 250 249 248 248 248 248 248 248 248 249 249 249 249 248 247 246 246 248 249 250 252 253 254 255 256 258 260 261 263 264 266 268 269 271 272 274 276 276 277 277 279 280 280 280 281 282 284 285 286 287 288 290 291 292 293 294 294 295 296 297 297 298 298 299 299 299 299 299 300 300 300 301 301 301 300 300 300 299 299 298 298
253 252 249 248 250 250 251 250 249 247 245 245 246 248 249 249 248 248 247 246 246 247 249 251 252 253 254 254 256 259 261 263 266 268 270 272 273 274 275 276 277 277 277 278 279 280 281 282 283 284 286 287 289 290 291 292 293 294 294 295 296 297 298 298 299 299 300 300 300 300 300 300 301 301 301 301 301 300 300 299 299 299 298 298 297
257 257 254 250 248 249 250 250 248 246 245 244 244 245 246 247 247 247 248 247 246 248 250 252 254 255 255 256 258 260 263 266 269 272 273 274 275 276 277 277 278 278 279 280 281 282 284 285 286 287 289 290 291 292 293 294 295 296 297 298 299 300 300 301 301 302 302 302 302 302 302 303 303 302 302 302 301 301 301 301 301 301 300 300 300
Height
3212 3213 3214 3215 3217 3218 3219 3220 3221 3222 3223 3224 3225 3226 3228 3229 3230 3231 3232 3233 3234 3235 3236 3236 3237 3238 3239 3240 3241 3242 3242 3243 3244 3245 3246 3247 3248 3249 3249 3250 3250 3251 3252 3252 3253 3253 3254 3255 3255 3256 3256 3257 3257 3257 3257 3257 3257 3258 3258 3258 3258 3258 3258 3258 3258 3258 3258 3257 3257 3257 3256 3255 3255 3254 3253 3252 3251 3250 3249 3248 3247 3246 3245 3244 3243
3210 3211 3212 3214 3215 3216 3218 3219 3220 3221 3222 3223 3224 3226 3227 3228 3229 3230 3231 3232 3233 3234 3235 3236 3237 3238 3238 3239 3240 3241 3242 3243 3244 3245 3246 3246 3247 3248 3248 3249 3249 3250 3251 3251 3252 3252 3253 3254 3254 3255 3255 3256 3256 3256 3256 3256 3257 3257 3257 3257 3257 3257 3257 3256 3256 3256 3256 3256 3256 3255 3254 3253 3253 3252 3251 3250 3249 3248 3248 3247 3246 3245 3244 3243 3242
3209 3210 3211 3212 3213 3215 3216 3217 3219 3220 3221 3222 3223 3225 3226 3227 3228 3229 3230 3231 3232 3233 3234 3235 3236 3237 3238 3239 3240 3240 3241 3242 3243 3244 3245 3245 3246 3247 3247 3248 3249 3249 3250 3250 3251 3251 3252 3253 3253 3253 3254 3254 3255 3255 3255 3256 3256 3256 3256 3256 3256 3256 3256 3255 3255 3255 3255 3254 3254 3253 3253 3252 3251 3250 3250 3249 3248 3247 3246 3245 3244 3244 3243 3242 3241
3207 3208 3210 3211 3212 3213 3215 3216 3217 3219 3220 3221 3222 3224 3225 3226 3228 3228 3229 3230 3231 3232 3233 3234 3235 3236 3237 3238 3239 3240 3241 3242 3243 3243 3244 3245 3245 3246 3246 3247 3247 3248 3249 3249 3250 3250 3251 3252 3252 3252 3253 3253 3253 3253 3254 3254 3255 3255 3255 3255 3255 3255 3255 3254 3254 3253 3253 3253 3252 3252 3251 3250 3250 3249 3248 3247 3247 3246 3245 3244 3243 3243 3242 3241 3241
3206 3207 3208 3209 3211 3212 3213 3215 3216 3218 3219 3220 3222 3223 3224 3226 3227 3228 3229 3230 3231 3232 3233 3234 3235 3236 3237 3238 3239 3240 3240 3241 3242 3242 3243 3244 3244 3245 3245 3246 3246 3246 3247 3248 3249 3249 3250 3250 3251 3251 3251 3252 3252 3252 3252 3253 3253 3253 3254 3254 3254 3254 3253 3253 3252 3252 3251 3251 3250 3250 3250 3249 3248 3247 3247 3246 3245 3244 3243 3242 3242 3241 3241 3241 3240
3204 3206 3207 3208 3210 3211 3213 3214 3215 3217 3218 3220 3221 3222 3223 3225 3226 3227 3228 3229 3230 3232 3232 3233 3234 3235 3236 3237 3238 3239 3239 3240 3241 3241 3242 3243 3244 3244 3245 3245 3246 3246 3246 3247 3247 3248 3248 3249 3250 3250 3250 3250 3251 3251 3251 3251 3252 3252 3252 3252 3252 3252 3252 3252 3251 3251 3250 3249 3249 3249 3248 3247 3246 3246 3245 3244 3243 3243 3242 3241 3241 3241 3240 3239 3239
3203 3204 3206 3207 3209 3210 3212 3214 3215 3217 3218 3219 3221 3222 3222 3224 3225 3226 3228 3229 3230 3231 3232 3233 3234 3235 3235 3236 3237 3238 3238 3239 3240 3240 3241 3242 3243 3243 3244 3245 3245 3246 3246 3246 3246 3247 3247 3248 3248 3249 3249 3249 3249 3249 3250 3250 3250 3250 3251 3251 3251 3250 3250 3250 3250 3249 3249 3248 3247 3247 3246 3246 3245 3245 3244 3243 3243 3242 3241 3240 3239 3239 3238 3237 3237
3201 3203 3204 3206 3208 3209 3211 3213 3215 3216 3218 3219 3220 3221 3222 3223 3225 3226 3227 3228 3229 3230 3231 3232 3233 3234 3234 3235 3236 3237 3237 3238 3239 3239 3240 3241 3242 3243 3243 3243 3244 3244 3245 3246 3246 3246 3245 3246 3247 3247 3247 3248 3248 3248 3248 3249 3249 3249 3249 3249 3249 3249 3249 3249 3248 3248 3247 3247 3246 3246 3245 3245 3244 3244 3243 3242 3242 3241 3239 3238 3237 3237 3236 3236 3235
3199 3201 3203 3204 3206 3208 3210 3212 3214 3215 3217 3218 3220 3221 3222 3222 3224 3225 3226 3227 3228 3229 3230 3231 3232 3233 3233 3234 3235 3236 3236 3237 3237 3238 3239 3239 3240 3241 3242 3242 3243 3243 3243 3244 3245 3245 3244 3244 3245 3246 3246 3246 3246 3246 3247 3247 3247 3248 3248 3248 3248 3247 3247 3247 3247 3246 3246 3245 3245 3244 3244 3244 3243 3242 3241 3241 3240 3239 3237 3236 3236 3235 3234 3234 3234
3197 3199 3201 3202 3205 3207 3209 3211 3213 3214 3216 3217 3219 3220 3221 3221 3222 3223 3224 3226 3227 3228 3228 3229 3230 3231 3232 3233 3233 3234 3234 3235 3236 3237 3237 3237 3238 3239 3240 3241 3241 3241 3242 3242 3243 3244 3244 3243 3244 3244 3244 3244 3245 3245 3245 3245 3246 3246 3246 3246 3246 3245 3245 3245 3245 3244 3244 3243 3243 3242 3242 3242 3241 3241 3240 3239 3238 3237 3236 3235 3234 3234 3233 3232 3232
3194 3196 3198 3200 3202 3204 3206 3208 3211 3213 3214 3215 3217 3218 3219 3220 3220 3221 3222 3224 3225 3226 3227 3228 3229 3229 3230 3231 3231 3232 3233 3234 3235 3236 3236 3236 3237 3238 3238 3239 3239 3240 3240 3241 3241 3242 3242 3242 3242 3242 3241 3241 3242 3243 3243 3243 3244 3244 3244 3244 3244 3244 3243 3243 3242 3242 3241 3241 3240 3240 3240 3239 3239 3238 3238 3237 3236 3235 3235 3234 3233 3232 3231 3229 3228
3192 3193 3195 3197 3199 3201 3204 3206 3207 3208 3209 3212 3213 3215 3215 3216 3217 3218 3219 3221 3223 3224 3225 3226 3227 3228 3229 3229 3229 3230 3231 3232 3233 3234 3234 3235 3235 3236 3237 3237 3238 3238 3239 3239 3240 3240 3240 3240 3240 3239 3238 3239 3240 3240 3241 3241 3242 3242 3243 3243 3243 3242 3242 3241 3240 3240 3239 3239 3238 3238 3238 3237 3237 3236 3235 3235 3234 3234 3233 3233 3231 3230 3229 3228 3226
3188 3190 3192 3193 3195 3198 3202 3206 3207 3208 3210 3213 3212 3212 3213 3214 3215 3216 3217 3218 3220 3222 3223 3224 3225 3227 3227 3226 3225 3227 3229 3230 3231 3232 3233 3233 3234 3234 3235 3236 3236 3237 3237 3237 3237 3237 3237 3238 3237 3237 3237 3238 3238 3239 3239 3240 3240 3241 3241 3241 3241 3240 3240 3239 3238 3238 3237 3237 3236 3237 3236 3235 3235 3234 3234 3233 3232 3232 3231 3230 3229 3228 3227 3226 3224
3183 3186 3188 3189 3191 3194 3198 3203 3207 3208 3211 3212 3211 3210 3212 3213 3214 3214 3215 3216 3217 3216 3218 3220 3222 3223 3223 3222 3222 3224 3226 3227 3229 3230 3230 3231 3232 3233 3234 3234 3235 3235 3235 3234 3234 3234 3235 3235 3235 3236 3237 3237 3237 3237 3237 3238 3238 3239 3239 3238 3238 3238 3238 3237 3236 3235 3235 3235 3235 3234 3234 3234 3233 3232 3232 3231 3230 3229 3228 3227 3226 3225 3224 3223 3222
3181 3185 3187 3187 3190 3193 3196 3200 3202 3204 3207 3208 3208 3208 3209 3211 3212 3212 3213 3214 3213 3214 3217 3219 3220 3220 3219 3218 3219 3221 3223 3225 3226 3227 3228 3229 3230 3231 3231 3232 3233 3232 3231 3230 3231 3232 3233 3233 3233 3234 3235 3235 3235 3234 3234 3235 3236 3237 3236 3236 3236 3236 3235 3234 3233 3233 3233 3233 3233 3232 3232 3231 3231 3230 3229 3228 3227 3226 3225 3224 3222 3221 3220 3219 3218
3180 3182 3183 3184 3187 3192 3196 3197 3197 3199 3202 3204 3204 3205 3205 3206 3208 3209 3210 3209 3210 3214 3218 3218 3217 3217 3217 3217 3219 3220 3221 3222 3224 3225 3226 3227 3227 3228 3229 3229 3229 3229 3227 3228 3230 3231 3231 3231 3232 3232 3232 3232 3233 3232 3232 3233 3233 3234 3234 3233 3233 3233 3232 3232 3231 3231 3231 3230 3230 3230 3229 3228 3228 3227 3226 3225 3224 3224 3222 3221 3220 3219 3218 3216 3215
3178 3178 3179 3180 3182 3188 3193 3193 3192 3194 3196 3197 3199 3201 3202 3202 3203 3204 3205 3203 3205 3211 3214 3214 3214 3214 3215 3216 3217 3218 3219 3220 3221 3222 3223 3224 3225 3225 3226 3226 3226 3225 3225 3226 3228 3228 3229 3229 3229 3230 3230 3230 3230 3231 3231 3231 3231 3231 3231 3231 3230 3230 3229 3229 3230 3229 3229 3229 3228 3227 3227 3226 3225 3224 3223 3222 3221 3221 3220 3219 3218 3217 3215 3213 3212
3175 3175 3177 3178 3178 3182 3187 3189 3188 3188 3189 3190 3194 3197 3198 3198 3198 3200 3199 3198 3201 3205 3208 3209 3209 3209 3211 3212 3214 3215 3216 3217 3218 3219 3220 3221 3221 3222 3222 3223 3223 3223 3223 3224 3225 3226 3226 3226 3226 3227 3228 3228 3228 3228 3228 3228 3228 3228 3228 3228 3228 3227 3227 3227 3227 3227 3227 3226 3226 3225 3225 3224 3223 3222 3221 3220 3219 3218 3217 3217 3215 3213 3212 3210 3208
3173 3173 3174 3176 3177 3178 3181 3184 3185 3185 3186 3187 3191 3194 3194 3194 3195 3195 3195 3195 3197 3200 3201 3203 3204 3204 3206 3209 3210 3211 3212 3213 3214 3216 3217 3217 3218 3219 3219 3220 3220 3220 3221 3222 3223 3223 3223 3223 3224 3225 3225 3225 3225 3225 3225 3225 3225 3225 3225 3225 3225 3225 3224 3224 3224 3223 3223 3223 3223 3222 3221 3221 3220 3219 3217 3217 3216 3216 3216 3214 3212 3210 3209 3207 3205
3170 3170 3172 3174 3175 3175 3176 3178 3181 3183 3184 3185 3187 3188 3189 3189 3190 3191 3191 3192 3193 3195 3197 3198 3199 3201 3202 3204 3205 3206 3208 3209 3210 3212 3213 3214 3215 3216 3216 3216 3217 3217 3218 3219 3220 3220 3221 3221 3222 3222 3222 3222 3222 3222 3222 3222 3221 3221 3221 3222 3222 3222 3221 3221 3220 3220 3219 3219 3219 3219 3218 3217 3217 3216 3214 3213 3214 3214 3213 3211 3209 3207 3206 3204 3203
3167 3168 3169 3170 3172 3173 3174 3175 3177 3179 3181 3182 3183 3184 3185 3185 3186 3186 3187 3188 3190 3192 3193 3194 3196 3198 3198 3198 3200 3201 3203 3205 3206 3208 3210 3211 3211 3212 3213 3213 3214 3215 3217 3217 3217 3218 3218 3219 3218 3218 3218 3218 3218 3218 3218 3218 3218 3218 3218 3218 3218 3218 3218 3218 3217 3216 3216 3216 3215 3215 3214 3213 3213 3212 3210 3209 3209 3209 3209 3208 3206 3204 3203 3202 3200
3163 3165 3166 3167 3169 3170 3172 3174 3174 3176 3177 3179 3180 3181 3181 3182 3182 3183 3184 3186 3187 3188 3190 3191 3193 3194 3194 3194 3194 3196 3198 3200 3202 3204 3206 3207 3208 3209 3209 3210 3211 3213 3215 3215 3214 3215 3216 3215 3215 3215 3215 3215 3214 3214 3214 3214 3214 3215 3215 3215 3215 3215 3214 3214 3214 3213 3213 3212 3212 3211 3210 3210 3209 3208 3207 3206 3205 3205 3205 3204 3203 3201 3200 3199 3198
3161 3162 3163 3164 3165 3167 3169 3171 3172 3173 3175 3176 3177 3178 3179 3179 3180 3181 3182 3183 3184 3186 3187 3188 3188 3189 3191 3192 3193 3194 3194 3195 3198 3201 3203 3204 3205 3206 3206 3207 3209 3211 3212 3212 3212 3212 3213 3212 3213 3213 3212 3212 3211 3211 3211 3211 3211 3211 3212 3212 3212 3211 3211 3211 3210 3210 3209 3209 3209 3208 3207 3206 3206 3205 3204 3203 3202 3201 3201 3200 3200 3199 3197 3196 3195
3159 3160 3160 3161 3162 3164 3166 3168 3170 3171 3172 3173 3174 3175 3176 3177 3178 3179 3180 3181 3182 3183 3184 3185 3185 3186 3187 3189 3192 3193 3193 3193 3195 3198 3199 3199 3200 3201 3203 3204 3205 3207 3209 3209 3209 3209 3209 3210 3210 3210 3209 3209 3209 3208 3208 3208 3208 3209 3209 3209 3208 3208 3208 3208 3207 3207 3206 3206 3206 3205 3205 3204 3203 3202 3201 3200 3199 3198 3198 3197 3196 3195 3194 3193 3192
3157 3158 3159 3159 3160 3161 3163 3165 3166 3168 3170 3171 3171 3172 3173 3174 3176 3177 3178 3179 3179 3180 3182 3183 3183 3184 3185 3186 3188 3191 3192 3192 3194 3195 3195 3195 3195 3197 3199 3201 3202 3204 3205 3206 3207 3207 3207 3207 3207 3207 3207 3207 3206 3206 3206 3206 3206 3206 3206 3206 3205 3205 3205 3205 3204 3203 3203 3203 3202 3202 3202 3201 3200 3199 3198 3197 3196 3195 3195 3194 3193 3192 3191 3191 3189
3155 3156 3157 3158 3159 3160 3161 3162 3163 3165 3166 3168 3169 3170 3171 3173 3174 3175 3176 3177 3178 3179 3180 3181 3182 3182 3183 3184 3186 3188 3189 3190 3191 3192 3193 3193 3193 3195 3196 3198 3199 3201 3202 3203 3204 3204 3204 3204 3205 3205 3205 3205 3204 3204 3204 3204 3204 3204 3203 3202 3201 3202 3202 3201 3201 3200 3200 3199 3199 3198 3198 3198 3197 3196 3195 3194 3193 3193 3192 3191 3190 3189 3188 3188 3187
3154 3154 3156 3157 3158 3158 3160 3160 3161 3162 3164 3165 3167 3168 3170 3171 3172 3173 3174 3176 3177 3177 3178 3179 3180 3180 3181 3182 3183 3185 3187 3188 3189 3190 3191 3192 3193 3193 3194 3196 3197 3199 3200 3201 3202 3202 3202 3202 3202 3203 3202 3202 3202 3202 3201 3201 3201 3200 3200 3199 3198 3198 3198 3198 3197 3197 3196 3196 3195 3195 3194 3194 3193 3193 3192 3191 3190 3190 3189 3188 3187 3186 3185 3184 3183
3152 3153 3154 3154 3155 3156 3157 3158 3159 3161 3163 3164 3166 3167 3168 3169 3171 3171 3172 3173 3174 3175 3176 3177 3178 3179 3180 3181 3181 3183 3185 3186 3186 3188 3189 3190 3191 3192 3193 3194 3196 3197 3198 3199 3199 3199 3200 3200 3200 3200 3199 3199 3199 3198 3198 3198 3197 3197 3196 3195 3194 3195 3195 3195 3194 3194 3193 3193 3192 3192 3191 3191 3190 3190 3189 3188 3188 3187 3186 3185 3184 3183 3183 3181 3180
3151 3151 3152 3152 3153 3155 3155 3156 3157 3160 3161 3162 3163 3164 3166 3167 3168 3169 3170 3171 3172 3173 3174 3175 3176 3177 3178 3179 3180 3182 3182 3183 3184 3186 3187 3188 3190 3191 3192 3193 3194 3195 3195 3196 3196 3196 3196 3196 3196 3196 3196 3196 3195 3195 3194 3194 3194 3193 3193 3192 3191 3191 3192 3192 3191 3191 3190 3190 3189 3189 3188 3188 3187 3187 3186 3185 3185 3184 3184 3183 3182 3181 3180 3179 3177
3150 3150 3151 3152 3153 3153 3153 3153 3155 3158 3159 3160 3161 3162 3164 3165 3166 3167 3168 3169 3171 3172 3173 3174 3175 3175 3176 3178 3179 3180 3181 3182 3183 3184 3185 3187 3188 3189 3190 3191 3192 3192 3192 3192 3192 3193 3193 3193 3193 3193 3192 3192 3192 3191 3191 3191 3191 3190 3190 3189 3189 3189 3189 3189 3188 3188 3187 3187 3186 3186 3185 3184 3184 3183 3183 3182 3182 3181 3180 3180 3179 3178 3177 3176 3174
3149 3150 3151 3152 3152 3151 3151 3153 3155 3157 3158 3159 3160 3161 3163 3163 3164 3165 3166 3167 3169 3170 3171 3172 3173 3174 3175 3177 3178 3179 3180 3181 3182 3183 3184 3185 3186 3187 3188 3188 3189 3189 3189 3189 3189 3189 3189 3189 3189 3189 3189 3189 3188 3188 3187 3187 3187 3187 3186 3186 3186 3186 3186 3185 3185 3185 3184 3183 3183 3182 3182 3181 3180 3179 3179 3178 3178 3177 3176 3175 3175 3174 3173 3172 3171
3147 3148 3149 3150 3150 3150 3151 3153 3155 3156 3157 3158 3159 3160 3161 3162 3163 3164 3165 3166 3167 3168 3170 3171 3172 3173 3174 3175 3176 3177 3178 3180 3181 3181 3182 3183 3184 3185 3185 3185 3186 3186 3186 3186 3186 3186 3186 3186 3186 3186 3185 3185 3185 3184 3184 3184 3184 3184 3184 3183 3183 3183 3183 3182 3182 3181 3181 3180 3179 3179 3178 3177 3177 3176 3175 3174 3173 3173 3172 3171 3170 3169 3168 3167 3166
3146 3147 3149 3149 3149 3149 3150 3151 3153 3154 3155 3156 3157 3159 3160 3161 3162 3163 3164 3165 3166 3167 3168 3169 3170 3171 3172 3173 3174 3176 3177 3177 3178 3179 3180 3181 3181 3182 3182 3182 3183 3183 3183 3182 3182 3182 3182 3182 3182 3182 3182 3182 3182 3181 3181 3181 3181 3181 3181 3180 3180 3180 3179 3179 3178 3178 3177 3176 3176 3175 3174 3173 3173 3172 3171 3170 3169 3168 3167 3166 3165 3164 3164 3163 3162
3146 3147 3148 3149 3149 3149 3149 3150 3151 3153 3153 3155 3156 3157 3158 3159 3161 3162 3163 3164 3165 3166 3167 3168 3169 3170 3170 3172 3173 3173 3174 3175 3176 3176 3177 3178 3178 3178 3178 3179 3179 3179 3179 3179 3179 3179 3179 3179 3179 3179 3179 3179 3178 3178 3178 3178 3177 3177 3177 3177 3176 3176 3175 3175 3175 3175 3173 3172 3172 3171 3170 3170 3169 3168 3167 3166 3165 3164 3163 3162 3161 3160 3159 3158 3157
3146 3146 3147 3147 3147 3148 3148 3148 3149 3150 3151 3153 3154 3155 3156 3157 3159 3160 3161 3162 3163 3164 3165 3166 3167 3168 3169 3169 3170 3171 3172 3173 3173 3173 3174 3174 3175 3175 3175 3175 3175 3175 3175 3175 3175 3175 3175 3175 3176 3176 3176 3176 3176 3175 3175 3175 3175 3174 3174 3174 3173 3172 3172 3171 3171 3171 3170 3169 3167 3166 3166 3166 3165 3164 3163 3162 3161 3160 3158 3157 3156 3154 3153 3152 3151
3145 3145 3146 3146 3146 3146 3147 3147 3148 3149 3150 3151 3152 3153 3154 3156 3157 3158 3159 3160 3161 3162 3163 3164 3164 3165 3166 3167 3168 3168 3169 3169 3170 3170 3171 3171 3171 3171 3171 3172 3172 3172 3172 3172 3172 3172 3172 3172 3173 3173 3173 3173 3173 3172 3172 3172 3171 3171 3171 3171 3170 3169 3169 3168 3168 3167 3166 3165 3164 3162 3162 3161 3160 3159 3158 3157 3156 3155 3153 3151 3150 3149 3147 3146 3145
3144 3144 3145 3145 3145 3145 3145 3145 3147 3148 3149 3150 3151 3151 3152 3154 3155 3155 3156 3157 3158 3159 3160 3161 3161 3162 3163 3164 3165 3165 3166 3166 3167 3167 3167 3168 3168 3168 3168 3169 3169 3169 3169 3170 3170 3169 3169 3169 3169 3170 3170 3170 3169 3169 3169 3168 3168 3168 3167 3167 3166 3165 3165 3164 3163 3163 3162 3161 3160 3159 3158 3156 3155 3154 3154 3153 3152 3150 3148 3146 3145 3143 3142 3141 3140
3141 3142 3143 3143 3143 3143 3143 3144 3145 3146 3147 3148 3149 3149 3150 3151 3152 3153 3154 3155 3155 3156 3157 3158 3158 3159 3160 3161 3162 3162 3162 3163 3163 3164 3164 3165 3165 3165 3166 3166 3166 3166 3166 3167 3167 3167 3166 3166 3166 3166 3166 3166 3165 3165 3165 3165 3164 3164 3163 3163 3162 3161 3160 3159 3159 3158 3158 3157 3156 3154 3153 3151 3150 3150 3149 3148 3147 3145 3143 3142 3140 3139 3138 3136 3135
3138 3139 3140 3140 3141 3141 3141 3142 3143 3144 3145 3145 3146 3147 3147 3148 3150 3150 3151 3152 3152 3153 3154 3155 3155 3156 3158 3159 3159 3159 3159 3160 3160 3161 3161 3162 3162 3162 3163 3163 3163 3163 3163 3164 3164 3164 3164 3163 3163 3163 3163 3162 3162 3162 3161 3161 3160 3160 3159 3158 3158 3157 3156 3155 3154 3154 3153 3153 3152 3150 3148 3146 3146 3145 3144 3143 3142 3140 3139 3137 3135 3134 3132 3131 3130
3135 3136 3137 3137 3138 3139 3139 3140 3141 3142 3142 3143 3143 3144 3145 3146 3146 3147 3148 3149 3150 3150 3151 3151 3152 3154 3156 3156 3155 3156 3157 3157 3158 3158 3159 3159 3160 3160 3160 3160 3160 3160 3160 3160 3160 3160 3160 3160 3160 3160 3159 3159 3159 3158 3158 3157 3156 3156 3155 3154 3153 3153 3152 3150 3149 3149 3149 3148 3147 3145 3143 3142 3141 3139 3138 3137 3136 3135 3133 3131 3129 3128 3126 3125 3123
3132 3133 3134 3134 3134 3135 3136 3137 3138 3139 3139 3140 3141 3141 3142 3143 3143 3144 3145 3146 3147 3148 3148 3149 3150 3152 3152 3152 3153 3154 3154 3154 3155 3155 3156 3156 3157 3157 3157 3157 3157 3156 3156 3157 3157 3157 3156 3156 3156 3155 3155 3155 3155 3154 3154 3153 3152 3151 3151 3150 3149 3148 3147 3146 3145 3145 3144 3142 3141 3139 3138 3136 3135 3133 3132 3132 3131 3129 3127 3125 3123 3121 3120 3118 3116
3128 3129 3130 3131 3132 3132 3133 3134 3135 3136 3136 3137 3137 3138 3139 3140 3140 3141 3142 3143 3144 3144 3145 3146 3148 3149 3149 3150 3151 3151 3151 3152 3152 3152 3153 3153 3153 3154 3153 3153 3153 3154 3154 3154 3154 3153 3153 3153 3152 3152 3152 3152 3151 3150 3149 3148 3148 3147 3146 3145 3144 3143 3142 3142 3141 3140 3139 3137 3135 3134 3132 3131 3129 3128 3126 3125 3124 3123 3121 3119 3117 3114 3112 3111 3108
3124 3125 3127 3128 3129 3129 3130 3131 3132 3133 3133 3134 3134 3135 3136 3137 3137 3138 3139 3140 3141 3141 3142 3143 3145 3146 3146 3147 3148 3148 3148 3148 3149 3149 3149 3150 3150 3150 3149 3149 3150 3151 3151 3151 3150 3150 3149 3149 3148 3148 3148 3147 3146 3146 3145 3144 3143 3143 3141 3140 3139 3138 3137 3137 3136 3135 3133 3131 3130 3128 3127 3126 3124 3122 3121 3119 3117 3116 3114 3112 3110 3108 3106 3104 3101
3121 3122 3124 3125 3126 3126 3127 3128 3129 3130 3131 3131 3132 3132 3133 3134 3135 3135 3136 3137 3138 3138 3139 3140 3141 3142 3143 3144 3144 3145 3145 3145 3146 3146 3146 3146 3146 3146 3146 3146 3147 3148 3147 3146 3146 3145 3145 3145 3144 3144 3143 3143 3142 3141 3140 3139 3139 3138 3136 3135 3134 3133 3133 3132 3131 3129 3127 3126 3125 3124 3122 3120 3119 3117 3115 3113 3111 3109 3108 3106 3104 3102 3100 3098 3096
3118 3119 3120 3122 3122 3123 3124 3125 3126 3127 3128 3129 3130 3130 3131 3132 3132 3133 3133 3134 3135 3136 3136 3137 3138 3139 3140 3140 3141 3142 3142 3142 3143 3143 3143 3143 3143 3143 3142 3143 3144 3144 3143 3142 3142 3141 3141 3141 3140 3139 3139 3138 3137 3136 3135 3135 3134 3133 3132 3131 3130 3129 3128 3127 3125 3123 3122 3121 3119 3118 3116 3115 3113 3111 3109 3107 3105 3103 3101 3099 3097 3095 3093 3091 3089
3115 3116 3117 3118 3119 3120 3121 3122 3123 3124 3125 3126 3127 3127 3128 3129 3130 3130 3131 3132 3133 3134 3134 3134 3135 3137 3137 3137 3138 3139 3139 3139 3139 3140 3140 3140 3140 3139 3139 3140 3141 3141 3140 3139 3138 3138 3137 3137 3136 3135 3135 3134 3133 3132 3131 3131 3130 3129 3128 3127 3126 3125 3123 3121 3120 3118 3116 3115 3113 3111 3109 3108 3106 3103 3101 3099 3097 3095 3093 3091 3089 3087 3085 3083 3081
3112 3113 3114 3115 3116 3117 3118 3119 3120 3121 3122 3123 3124 3124 3125 3126 3127 3128 3129 3130 3131 3131 3131 3132 3133 3134 3134 3135 3136 3136 3136 3137 3137 3137 3137 3137 3137 3137 3137 3137 3137 3137 3137 3136 3135 3134 3134 3133 3133 3132 3131 3130 3129 3128 3128 3127 3126 3125 3124 3123 3121 3119 3118 3116 3114 3113 3111 3109 3106 3105 3102 3100 3098 3096 3094 3091 3089 3087 3085 3083 3081 3079 3077 3075 3073
3109 3110 3110 3111 3112 3114 3114 3115 3117 3118 3119 3120 3121 3121 3122 3123 3124 3125 3126 3127 3128 3128 3129 3129 3130 3130 3131 3132 3133 3133 3133 3134 3134 3134 3134 3134 3134 3134 3134 3134 3133 3133 3133 3132 3131 3131 3130 3129 3128 3128 3127 3126 3125 3124 3123 3122 3121 3120 3119 3117 3115 3113 3111 3110 3108 3106 3104 3101 3099 3097 3095 3093 3091 3089 3087 3084 3082 3080 3078 3076 3074 3073 3071 3069 3067
3106 3107 3107 3108 3109 3110 3111 3112 3113 3115 3115 3116 3118 3118 3119 3120 3121 3122 3123 3124 3125 3125 3126 3126 3127 3128 3129 3129 3129 3130 3130 3131 3131 3131 3130 3130 3130 3130 3130 3129 3129 3129 3129 3128 3127 3126 3126 3125 3124 3123 3122 3121 3121 3119 3118 3117 3116 3114 3113 3111 3108 3106 3105 3103 3100 3098 3096 3094 3092 3090 3088 3086 3084 3082 3080 3078 3076 3074 3072 3070 3068 3066 3064 3062 3060
3102 3103 3104 3104 3106 3107 3108 3109 3111 3111 3112 3113 3115 3116 3117 3118 3118 3119 3120 3121 3122 3122 3123 3123 3124 3125 3126 3126 3126 3127 3127 3127 3127 3127 3127 3126 3126 3126 3126 3125 3125 3125 3124 3124 3123 3122 3121 3120 3119 3118 3117 3116 3115 3114 3112 3111 3110 3108 3106 3104 3102 3100 3097 3095 3093 3091 3089 3087 3085 3083 3081 3079 3078 3076 3074 3072 3070 3068 3066 3064 3062 3060 3058 3056 3054
3098 3099 3100 3101 3102 3103 3105 3106 3107 3108 3109 3111 3112 3113 3114 3115 3116 3116 3117 3118 3119 3119 3120 3121 3121 3122 3122 3123 3123 3124 3124 3124 3124 3123 3123 3122 3122 3122 3122 3121 3121 3120 3120 3119 3118 3117 3116 3115 3114 3113 3112 3111 3109 3107 3106 3104 3103 3100 3098 3096 3094 3092 3090 3088 3086 3084 3082 3080 3078 3077 3075 3073 3071 3069 3067 3066 3064 3062 3060 3058 3056 3054 3052 3050 3048